Time,TemperatureF,DewpointF,PressureIn,WindDirection,WindDirectionDegrees,WindSpeedMPH,WindSpeedGustMPH,Humidity,HourlyPrecipIn,Conditions,Clouds,dailyrainin,SoftwareType,DateUTC
2013-07-18 00:02:00,61.8,55.2,30.12,West,269,0.0,7.0,79,0.00,CLR,,0.00,WeatherDisplay:10.37,2013-07-18 08:02:00,
2013-07-18 00:17:00,61.5,55.3,30.12,WSW,251,1.0,6.0,80,0.00,CLR,,0.00,WeatherDisplay:10.37,2013-07-18 08:17:00,
2013-07-18 00:32:00,61.3,55.1,30.13,WSW,253,2.0,5.0,80,0.00,CLR,,0.00,WeatherDisplay:10.37,2013-07-18 08:32:00,
2013-07-18 00:47:00,61.3,55.0,30.13,WSW,248,0.0,5.0,80,0.00,CLR,,0.00,WeatherDisplay:10.37,2013-07-18 08:47:00,
2013-07-18 01:02:00,61.2,55.3,30.14,WSW,256,2.0,6.0,81,0.00,CLR,,0.00,WeatherDisplay:10.37,2013-07-18 09:02:00,
2013-07-18 01:17:00,61.1,55.2,30.14,WSW,248,2.0,5.0,81,0.00,CLR,,0.00,WeatherDisplay:10.37,2013-07-18 09:17:00,
2013-07-18 01:32:00,61.1,55.2,30.14,WSW,245,1.0,7.0,81,0.00,CLR,,0.00,WeatherDisplay:10.37,2013-07-18 09:32:00,
2013-07-18 01:47:00,61.1,55.2,30.14,WSW,254,2.0,7.0,81,0.00,CLR,,0.00,WeatherDisplay:10.37,2013-07-18 09:47:00,
2013-07-18 02:02:00,60.9,55.0,30.14,WSW,250,2.0,7.0,81,0.00,CLR,,0.00,WeatherDisplay:10.37,2013-07-18 10:02:00,
2013-07-18 02:17:00,60.7,54.5,30.14,WSW,249,1.0,5.0,80,0.00,CLR,,0.00,WeatherDisplay:10.37,2013-07-18 10:17:00,
2013-07-18 02:32:00,60.5,54.3,30.15,SW,225,0.0,5.0,80,0.00,CLR,,0.00,WeatherDisplay:10.37,2013-07-18 10:32:00,
2013-07-18 02:47:00,60.2,54.3,30.15,SW,220,1.0,5.0,81,0.00,CLR,,0.00,WeatherDisplay:10.37,2013-07-18 10:47:00,
2013-07-18 03:02:00,60.0,54.5,30.15,West,259,2.0,4.0,82,0.00,CLR,,0.00,WeatherDisplay:10.37,2013-07-18 11:02:00,
2013-07-18 03:17:00,59.7,54.8,30.15,WSW,247,2.0,5.0,84,0.00,CLR,,0.00,WeatherDisplay:10.37,2013-07-18 11:17:00,
2013-07-18 03:32:00,59.6,55.1,30.16,WSW,250,0.0,5.0,85,0.00,CLR,,0.00,WeatherDisplay:10.37,2013-07-18 11:32:00,
2013-07-18 03:47:00,59.5,55.0,30.16,NW,322,0.0,4.0,85,0.00,CLR,,0.00,WeatherDisplay:10.37,2013-07-18 11:47:00,
2013-07-18 04:02:00,59.2,54.7,30.16,SW,220,0.0,3.0,85,0.00,CLR,,0.00,WeatherDisplay:10.37,2013-07-18 12:02:00,
2013-07-18 04:17:00,59.1,54.9,30.17,SSW,205,0.0,0.0,86,0.00,CLR,,0.00,WeatherDisplay:10.37,2013-07-18 12:17:00,
2013-07-18 04:32:00,58.7,54.6,30.16,SW,218,1.0,8.0,86,0.00,CLR,,0.00,WeatherDisplay:10.37,2013-07-18 12:32:00,
2013-07-18 04:47:00,58.6,54.4,30.17,WSW,254,0.0,5.0,86,0.00,CLR,,0.00,WeatherDisplay:10.37,2013-07-18 12:47:00,
2013-07-18 05:02:00,58.4,54.5,30.17,WSW,252,0.0,5.0,87,0.00,CLR,,0.00,WeatherDisplay:10.37,2013-07-18 13:02:00,
2013-07-18 05:17:00,58.4,54.5,30.17,WSW,258,0.0,0.0,87,0.00,CLR,,0.00,WeatherDisplay:10.37,2013-07-18 13:17:00,
2013-07-18 05:32:00,58.3,54.5,30.17,WSW,258,0.0,0.0,87,0.00,CLR,,0.00,WeatherDisplay:10.37,2013-07-18 13:32:00,
2013-07-18 05:47:00,58.2,54.1,30.17,WSW,258,0.0,0.0,86,0.00,CLR,,0.00,WeatherDisplay:10.37,2013-07-18 13:47:00,
2013-07-18 06:02:00,58.5,54.3,30.17,South,177,6.0,9.0,86,0.00,CLR,,0.00,WeatherDisplay:10.37,2013-07-18 14:02:00,
2013-07-18 06:17:00,58.1,54.6,30.17,SSE,167,3.0,8.0,88,0.00,CLR,,0.00,WeatherDisplay:10.37,2013-07-18 14:17:00,
2013-07-18 06:32:00,57.8,54.6,30.17,South,169,0.0,7.0,89,0.00,CLR,,0.00,WeatherDisplay:10.37,2013-07-18 14:32:00,
2013-07-18 06:47:00,57.8,54.6,30.17,SSE,157,0.0,3.0,89,0.00,CLR,,0.00,WeatherDisplay:10.37,2013-07-18 14:47:00,
2013-07-18 07:02:00,58.1,54.2,30.18,SE,124,0.0,1.0,87,0.00,CLR,,0.00,WeatherDisplay:10.37,2013-07-18 15:02:00,
2013-07-18 07:17:00,58.4,54.2,30.18,SE,124,0.0,0.0,86,0.00,CLR,,0.00,WeatherDisplay:10.37,2013-07-18 15:17:00,
2013-07-18 07:32:00,59.2,55.3,30.18,ESE,111,1.0,3.0,87,0.00,CLR,,0.00,WeatherDisplay:10.37,2013-07-18 15:32:00,
2013-07-18 07:47:00,59.3,55.8,30.18,ENE,60,1.0,4.0,88,0.00,CLR,,0.00,WeatherDisplay:10.37,2013-07-18 15:47:00,
2013-07-18 08:02:00,59.2,55.9,30.17,ENE,70,2.0,5.0,89,0.00,CLR,,0.00,WeatherDisplay:10.37,2013-07-18 16:02:00,
2013-07-18 08:17:00,58.9,56.0,30.18,ENE,71,3.0,6.0,90,0.00,CLR,,0.00,WeatherDisplay:10.37,2013-07-18 16:17:00,
2013-07-18 08:32:00,59.1,56.5,30.18,ENE,78,1.0,5.0,91,0.00,CLR,,0.00,WeatherDisplay:10.37,2013-07-18 16:32:00,
2013-07-18 08:47:00,59.5,56.9,30.18,NE,53,2.0,4.0,91,0.00,CLR,,0.00,WeatherDisplay:10.37,2013-07-18 16:47:00,
2013-07-18 09:02:00,59.7,56.5,30.18,ENE,58,0.0,4.0,89,0.00,CLR,,0.00,WeatherDisplay:10.37,2013-07-18 17:02:00,
2013-07-18 09:17:00,60.1,56.6,30.18,East,100,3.0,5.0,88,0.00,CLR,,0.00,WeatherDisplay:10.37,2013-07-18 17:17:00,
2013-07-18 09:32:00,60.5,56.2,30.18,SE,138,1.0,4.0,86,0.00,CLR,,0.00,WeatherDisplay:10.37,2013-07-18 17:32:00,
2013-07-18 09:47:00,60.9,56.7,30.18,SE,143,0.0,3.0,86,0.00,CLR,,0.00,WeatherDisplay:10.37,2013-07-18 17:47:00,
2013-07-18 10:02:00,61.1,55.5,30.18,South,169,2.0,7.0,82,0.00,CLR,,0.00,WeatherDisplay:10.37,2013-07-18 18:02:00,
2013-07-18 10:17:00,61.7,55.8,30.17,SSE,167,5.0,8.0,81,0.00,CLR,,0.00,WeatherDisplay:10.37,2013-07-18 18:17:00,
2013-07-18 10:32:00,62.5,55.2,30.17,South,174,6.0,9.0,77,0.00,CLR,,0.00,WeatherDisplay:10.37,2013-07-18 18:32:00,
2013-07-18 10:47:00,63.2,54.4,30.17,South,175,3.0,10.0,73,0.00,CLR,,0.00,WeatherDisplay:10.37,2013-07-18 18:47:00,
2013-07-18 11:02:00,63.4,53.9,30.17,South,183,2.0,10.0,71,0.00,CLR,,0.00,WeatherDisplay:10.37,2013-07-18 19:02:00,
2013-07-18 11:17:00,63.7,53.4,30.17,SSW,209,5.0,9.0,69,0.00,CLR,,0.00,WeatherDisplay:10.37,2013-07-18 19:17:00,
2013-07-18 11:32:00,64.5,54.1,30.16,SW,230,3.0,7.0,69,0.00,CLR,,0.00,WeatherDisplay:10.37,2013-07-18 19:32:00,
2013-07-18 11:47:00,64.7,53.5,30.16,West,281,3.0,8.0,67,0.00,CLR,,0.00,WeatherDisplay:10.37,2013-07-18 19:47:00,
2013-07-18 12:02:00,65.1,53.5,30.16,WSW,238,3.0,8.0,66,0.00,CLR,,0.00,WeatherDisplay:10.37,2013-07-18 20:02:00,
2013-07-18 12:17:00,65.3,52.8,30.15,WSW,254,0.0,10.0,64,0.00,CLR,,0.00,WeatherDisplay:10.37,2013-07-18 20:17:00,
2013-07-18 12:32:00,66.4,53.8,30.15,SSE,158,1.0,8.0,64,0.00,CLR,,0.00,WeatherDisplay:10.37,2013-07-18 20:32:00,
2013-07-18 12:47:00,66.8,53.4,30.15,SW,216,0.0,8.0,62,0.00,CLR,,0.00,WeatherDisplay:10.37,2013-07-18 20:47:00,
2013-07-18 13:02:00,67.1,53.2,30.14,South,185,3.0,8.0,61,0.00,CLR,,0.00,WeatherDisplay:10.37,2013-07-18 21:02:00,
2013-07-18 13:17:00,67.5,53.1,30.14,West,264,6.0,9.0,60,0.00,CLR,,0.00,WeatherDisplay:10.37,2013-07-18 21:17:00,
2013-07-18 13:32:00,68.0,53.2,30.13,SSE,158,2.0,8.0,59,0.00,CLR,,0.00,WeatherDisplay:10.37,2013-07-18 21:32:00,
2013-07-18 13:47:00,68.5,52.7,30.12,SSW,195,6.0,9.0,57,0.00,CLR,,0.00,WeatherDisplay:10.37,2013-07-18 21:47:00,
2013-07-18 14:02:00,68.4,52.5,30.12,SW,216,2.0,8.0,57,0.00,CLR,,0.00,WeatherDisplay:10.37,2013-07-18 22:02:00,
2013-07-18 14:17:00,68.8,52.0,30.11,South,170,2.0,10.0,55,0.00,CLR,,0.00,WeatherDisplay:10.37,2013-07-18 22:17:00,
2013-07-18 14:32:00,69.1,52.3,30.11,SSE,152,3.0,9.0,55,0.00,CLR,,0.00,WeatherDisplay:10.37,2013-07-18 22:32:00,
2013-07-18 14:47:00,68.9,52.1,30.11,WSW,240,2.0,6.0,55,0.00,CLR,,0.00,WeatherDisplay:10.37,2013-07-18 22:47:00,
2013-07-18 15:02:00,69.4,53.0,30.11,SSE,167,3.0,9.0,56,0.00,CLR,,0.00,WeatherDisplay:10.37,2013-07-18 23:02:00,
2013-07-18 15:17:00,69.1,52.7,30.10,South,190,5.0,7.0,56,0.00,CLR,,0.00,WeatherDisplay:10.37,2013-07-18 23:17:00,
2013-07-18 15:32:00,69.4,53.0,30.10,South,172,2.0,6.0,56,0.00,CLR,,0.00,WeatherDisplay:10.37,2013-07-18 23:32:00,
2013-07-18 15:47:00,69.1,52.8,30.10,SW,234,2.0,6.0,56,0.00,CLR,,0.00,WeatherDisplay:10.37,2013-07-18 23:47:00,
2013-07-18 16:02:00,69.2,52.8,30.09,WSW,253,2.0,6.0,56,0.00,CLR,,0.00,WeatherDisplay:10.37,2013-07-19 00:02:00,
2013-07-18 16:17:00,69.4,53.1,30.09,WSW,240,1.0,5.0,56,0.00,CLR,,0.00,WeatherDisplay:10.37,2013-07-19 00:17:00,
2013-07-18 16:32:00,69.6,52.7,30.09,SW,222,1.0,5.0,55,0.00,CLR,,0.00,WeatherDisplay:10.37,2013-07-19 00:32:00,
2013-07-18 16:47:00,69.8,53.4,30.08,SW,220,0.0,2.0,56,0.00,CLR,,0.00,WeatherDisplay:10.37,2013-07-19 00:47:00,
2013-07-18 17:02:00,69.5,52.6,30.08,West,261,1.0,4.0,55,0.00,CLR,,0.00,WeatherDisplay:10.37,2013-07-19 01:02:00,
2013-07-18 17:17:00,69.3,53.4,30.08,SSE,165,0.0,1.0,57,0.00,CLR,,0.00,WeatherDisplay:10.37,2013-07-19 01:17:00,
2013-07-18 17:32:00,68.9,53.0,30.08,SSW,200,0.0,0.0,57,0.00,CLR,,0.00,WeatherDisplay:10.37,2013-07-19 01:32:00,
2013-07-18 17:47:00,68.8,53.4,30.07,SSW,200,0.0,0.0,58,0.00,CLR,,0.00,WeatherDisplay:10.37,2013-07-19 01:47:00,
2013-07-18 18:02:00,68.5,53.6,30.07,SSW,200,0.0,0.0,59,0.00,CLR,,0.00,WeatherDisplay:10.37,2013-07-19 02:02:00,
2013-07-18 18:17:00,68.3,54.7,30.07,West,260,1.0,3.0,62,0.00,CLR,,0.00,WeatherDisplay:10.37,2013-07-19 02:17:00,
2013-07-18 18:32:00,67.6,55.9,30.07,WSW,245,0.0,5.0,66,0.00,CLR,,0.00,WeatherDisplay:10.37,2013-07-19 02:32:00,
2013-07-18 18:47:00,66.9,57.9,30.07,SW,226,2.0,3.0,73,0.00,CLR,,0.00,WeatherDisplay:10.37,2013-07-19 02:47:00,
2013-07-18 19:02:00,65.6,57.5,30.07,South,181,2.0,5.0,75,0.00,CLR,,0.00,WeatherDisplay:10.37,2013-07-19 03:02:00,
2013-07-18 19:17:00,64.6,57.5,30.07,SSE,154,0.0,4.0,78,0.00,CLR,,0.00,WeatherDisplay:10.37,2013-07-19 03:17:00,
2013-07-18 19:32:00,63.4,57.4,30.07,WSW,252,2.0,5.0,81,0.00,CLR,,0.00,WeatherDisplay:10.37,2013-07-19 03:32:00,
2013-07-18 19:47:00,61.9,57.3,30.08,SW,236,2.0,6.0,85,0.00,CLR,,0.00,WeatherDisplay:10.37,2013-07-19 03:47:00,
2013-07-18 20:02:00,60.9,57.9,30.08,WSW,258,3.0,6.0,90,0.00,CLR,,0.00,WeatherDisplay:10.37,2013-07-19 04:02:00,
2013-07-18 20:17:00,60.3,58.0,30.08,West,261,3.0,5.0,92,0.00,CLR,,0.00,WeatherDisplay:10.37,2013-07-19 04:17:00,
2013-07-18 20:32:00,59.6,57.9,30.07,WSW,250,1.0,5.0,94,0.00,CLR,,0.00,WeatherDisplay:10.37,2013-07-19 04:32:00,
2013-07-18 20:47:00,59.4,57.9,30.07,WNW,282,0.0,3.0,95,0.00,CLR,,0.00,WeatherDisplay:10.37,2013-07-19 04:47:00,
2013-07-18 21:02:00,59.1,57.9,30.07,WNW,290,0.0,3.0,96,0.00,CLR,,0.00,WeatherDisplay:10.37,2013-07-19 05:02:00,
2013-07-18 21:17:00,59.1,57.9,30.07,North,356,0.0,2.0,96,0.00,CLR,,0.00,WeatherDisplay:10.37,2013-07-19 05:17:00,
2013-07-18 21:32:00,59.0,57.9,30.08,ENE,64,0.0,0.0,96,0.00,CLR,,0.00,WeatherDisplay:10.37,2013-07-19 05:32:00,
2013-07-18 21:47:00,59.1,58.0,30.08,ENE,64,0.0,0.0,96,0.00,CLR,,0.00,WeatherDisplay:10.37,2013-07-19 05:47:00,
2013-07-18 22:02:00,59.0,57.8,30.08,ENE,64,0.0,0.0,96,0.00,CLR,,0.00,WeatherDisplay:10.37,2013-07-19 06:02:00,
2013-07-18 22:17:00,58.6,57.8,30.08,North,359,0.0,2.0,97,0.00,CLR,,0.00,WeatherDisplay:10.37,2013-07-19 06:17:00,
2013-07-18 22:32:00,58.4,57.5,30.08,SSW,209,0.0,2.0,97,0.00,CLR,,0.00,WeatherDisplay:10.37,2013-07-19 06:32:00,
2013-07-18 22:47:00,58.4,57.5,30.08,West,261,0.0,2.0,97,0.00,CLR,,0.00,WeatherDisplay:10.37,2013-07-19 06:47:00,
2013-07-18 23:02:00,58.3,57.5,30.08,West,261,0.0,0.0,97,0.00,CLR,,0.00,WeatherDisplay:10.37,2013-07-19 07:02:00,
2013-07-18 23:17:00,58.3,57.4,30.09,WNW,288,2.0,5.0,97,0.00,CLR,,0.00,WeatherDisplay:10.37,2013-07-19 07:17:00,
2013-07-18 23:32:00,58.2,57.6,30.08,West,269,0.0,4.0,98,0.00,CLR,,0.00,WeatherDisplay:10.37,2013-07-19 07:32:00,
2013-07-18 23:47:00,58.1,57.5,30.08,NNE,21,0.0,2.0,98,0.00,CLR,,0.00,WeatherDisplay:10.37,2013-07-19 07:47:00,